Regional Weather Roundup
Issued by NWS Upton, NY

Current Version | Previous Version | Text Only | Print | Product List | Glossary On
Versions: 1 2 3 4 5 6 7 8 9 10 11 12 13 14 15 16 17 18 19 20 21 22 23 24 25 26 27 28 29 30 31 32 33 34 35 36 37 38 39 40 41 42 43 44 45 46 47 48 49 50
997 ASUS41 KOKX 241304 RWROKX REGIONAL WEATHER ROUNDUP NATIONAL WEATHER SERVICE NEW YORK NY 900 AM EDT SUN JUL 24 2016 NOTE: "FAIR" INDICATES FEW OR NO CLOUDS BELOW 12,000 FEET WITH NO SIGNIFICANT WEATHER AND/OR OBSTRUCTIONS TO VISIBILITY. NYZ071-072-176-178-NJZ106-104-241400- NEW YORK CITY METRO AREA CITY SKY/WX TMP DP RH WIND PRES REMARKS Central Park MOSUNNY 79 60 52 VRB3 30.01S LaGuardia APRT MOSUNNY 80 61 52 N6 29.98S Kennedy INTL PTSUNNY 82 59 45 N8 29.99S Newark/Liberty PTSUNNY 83 60 45 CALM 29.99R BRNX BOT. GARD N/A 79 61 53 NW6 30.01R Wall St Helipt MOSUNNY 81 63 54 SW5 29.99S Teterboro MOSUNNY 81 59 47 VRB3 29.98R $$ NYZ177-179-078>081-241400- LONG ISLAND NEW YORK CITY SKY/WX TMP DP RH WIND PRES REMARKS FARMINGDALE MOSUNNY 80 62 54 N7 29.98S ISLIP MOSUNNY 80 62 54 N9 29.97S SHIRLEY SUNNY 80 63 55 NW8 29.98S RIVERHEAD NOT AVBL WESTHAMPTON SUNNY 79 61 53 N10 29.99S SOUTHAMPTON N/A 79 63 57 N7 29.93S BRIDGEHAMPTON N/A 75 64 69 E2 29.96S EAST HAMPTON FAIR 77 62 59 N8 29.96S MONTAUK POINT N/A 73 64 73 NW7 29.98R $$ NYZ052-065-067-241400- HUDSON VALLEY CITY SKY/WX TMP DP RH WIND PRES REMARKS WHITE PLAINS SUNNY 77 61 57 W3 29.99S NEWBURGH SUNNY 73 64 73 CALM 30.03R MONTGOMERY MOSUNNY 77 64 64 VRB5 30.01S POUGHKEEPSIE MOSUNNY 74 63 68 CALM 30.00S ALBANY MOSUNNY 71 63 75 N7 30.02R $$ NJZ001-105-106-008-010-013-015-019>022-104-241400- NEW JERSEY CITY SKY/WX TMP DP RH WIND PRES REMARKS NEWARK/LIBERTY PTSUNNY 83 60 45 CALM 29.99R TETERBORO MOSUNNY 81 59 47 VRB3 29.98R CALDWELL MOSUNNY 80 61 52 CALM 30.00S MORRISTOWN MOSUNNY 79 63 57 CALM 30.00S SOMERVILLE MOSUNNY 78 63 59 N3 29.99S SUSSEX MOSUNNY 75 62 64 SE5 30.02S ANDOVER N/A 74 63 68 VRB3 30.03S TRENTON SUNNY 80 63 55 N7 29.99F MILLVILLE SUNNY 81 69 67 N6 29.98F ATLANTIC CITY SUNNY 81 69 67 NE6 29.98S WRIGHTSTOWN NOT AVBL TOMS RIVER MOSUNNY 82 65 56 VRB3 29.99F BELMAR SUNNY 82 63 52 N6 30.00S $$ PAZ047>061-062-071-241400- EASTERN PENNSYLVANIA CITY SKY/WX TMP DP RH WIND PRES REMARKS PHILADELPHIA MOSUNNY 85 61 44 N8 29.99F ALLENTOWN SUNNY 78 61 55 NW3 30.02S SCRANTON SUNNY 76 58 53 W3 30.04F $$ CTZ002-004>006-009-010-012-RIZ004-006-007-MAZ004-011-015-241400- SOUTHERN NEW ENGLAND IN CT CITY SKY/WX TMP DP RH WIND PRES REMARKS BRADLEY INTL MOSUNNY 79 61 53 W7 29.97F HARTFORD SUNNY 80 62 54 W5 29.97F DANBURY MOSUNNY 80 60 50 N9 30.00F WTRBRY/OXFORD MOSUNNY 75 59 57 N9 30.02R BRIDGEPORT SUNNY 80 62 54 N8 29.97S MERIDEN SUNNY 80 60 50 VRB5 29.98F NEW HAVEN SUNNY 79 61 53 N12 29.97F CHESTER FAIR 77 61 57 NW9 29.98F GROTON SUNNY 80 62 54 N14 29.95F WILLIMANTIC NOT AVBL IN RI CITY SKY/WX TMP DP RH WIND PRES REMARKS PROVIDENCE MOSUNNY 77 60 55 NW8 29.95S BLOCK ISLAND SUNNY 73 63 70 W6 29.96S WESTERLY SUNNY 78 60 53 NW9 29.96S IN MA CITY SKY/WX TMP DP RH WIND PRES REMARKS BOSTON SUNNY 77 60 55 NW10 29.93S WORCESTER SUNNY 72 59 63 W12 29.99R WESTFIELD SUNNY 78 60 53 NW7 29.98F PROVINCETOWN SUNNY 71 65 81 NW8 29.94R NANTUCKET SUNNY 75 63 66 N13 29.93R $$ ANZ330-335-338-340-345-350-353-355-241400- COASTAL MARINE OBSERVATIONS STATION/POSITION TIME SKY/WX TEMP WIND PRES VSBY WAVE AIR SEA DIR/SP/G HT/PER (UTC) (F) (DEG/KT/KT) (MB) (MI) (FT/S) NY HARB ENTRANCE 1150 74 72 300/ 4/ 4 1014.9 2/ 6 20S FIRE ISLAND 1150 75 73 350/ 8/ 10 1014.3 3/ 6 GREAT SOUTH BAY 1200 76 80 320/ 6/ 8 N/A 23 SSW MONTAUK P 1150 72 71 300/ 6/ 8 1014.9 3/ 6 15 E BARNEGAT LI 1222 76 N/A 2/ 6 HUDSON CANYON 1150 78 77 1013.9 3/ 6 KINGS POINT 1200 75 72 1015.2 EXECUTION ROCKS 1200 83 CALM / 2 N/A CENTRAL LI SOUND 1200 72 73 350/ 4/ 6 N/A 1 EASTERN LI SOUND 1200 78 67 320/ 6/ 6 N/A ROBBINS REEF 1200 79 270/ 4/ 4 1014.8 $$ >>>>>>>>>>>>>>>>>>>>>>>>>>>> KEY <<<<<<<<<<<<<<<<<<<<<<<<<<< > < > SKY/WX - SKY CONDITION/PRESENT WEATHER < > TMP - TEMPERATURE IN FAHRENHEIT < > DP - DEWPOINT IN FAHRENHEIT < > RH - RELATIVE HUMIDITY IN PERCENT < > WIND - DIRECTION AND SPEED IN MPH < > PRES - MEAN SEA LEVEL PRESSURE IN INCHES OF HG < > WCI - WIND CHILL INDEX < > VSB - VISIBILITY IN MILES < > HX - HEAT INDEX < > TC - TEMPERATURE IN CELSIUS < > VRB - VARIABLE WIND DIRECTION < > < >>>>>>>>>>>>>>>>>>>>>>>>>>>> KEY <<<<<<<<<<<<<<<<<<<<<<<<<<<

USA.gov is the U.S. government's official web portal to all federal, state and local government web resources and services.